Zurück zum Katalog

STARLINK-36585

AktivKommunikationSSO
NORAD 67540·PAYLOAD·🇺🇸 United States

Gestartet Jan 22, 2026 von Vandenberg Space Force Base

Loading…

Nächste Überflüge (nächste 24 Stunden)

TLE

AktuellSource: CelesTrak SupGP

Epoche: Sep 14, 2026, 22:48 UTC

1 67540C 26014J   26257.95048611  .00025852  00000+0  80273-3 0  2572
2 67540  97.2846 143.3976 0001761  92.5805  67.5483 15.33416449    11

Verfolge STARLINK-36585 in Echtzeit mit AllMySat

Download on the App Store